Powrót do katalogu

STARLINK-32652

AktywnyŁącznośćVLEO
NORAD 62234·PAYLOAD·🇺🇸 United States

Wystrzelony Dec 5, 2024 z Vandenberg Space Force Base

Loading…

Następne Przeloty (najbliższe 24 godziny)

TLE

ŚwieżeSource: CelesTrak SupGP

Epoka: Sep 14, 2026, 20:34 UTC

1 62234C 24231S   26257.85743056  .00028871  00000+0  92870-3 0  2570
2 62234  53.1590  60.1047 0001092  74.5254 260.0962 15.31678344    17

Śledź STARLINK-32652 w czasie rzeczywistym z AllMySat

Download on the App Store